Regional Weather Roundup
Issued by NWS

Home | Current Version | Previous Version | Text Only | Print | Product List | Glossary Off
Versions: 1 2 3 4 5 6 7 8 9 10 11 12 13 14 15 16 17 18 19 20 21 22 23 24 25 26 27 28 29 30 31 32 33 34 35 36 37 38 39 40 41 42 43 44 45 46 47 48 49 50

000
ASUS43 KDMX 221306
RWRIA

WEATHER ROUNDUP FOR IOWA
NATIONAL WEATHER SERVICE DES MOINES IA
700 AM CST SUN JAN 22 2017

NOTE: "FAIR" INDICATES FEW OR NO CLOUDS BELOW 12,000 FEET WITH NO
SIGNIFICANT WEATHER AND/OR OBSTRUCTIONS TO VISIBILITY.

* - THESE STATIONS ARE NOT NWS STATIONS...THUS NOT UNDER NWS
QUALITY CONTROL.  THEY ALSO DO NOT REPORT WEATHER SUCH
AS PRECIPITATION OR FOG.

IAZ001>003-012>014-020>022-031>034-043>046-221400-
   NORTHWEST IOWA

CITY           SKY/WX    TMP DP  RH WIND       PRES   REMARKS
CARROLL *      CLOUDY    32  32 100 NW9       29.67R WCI  24
CHEROKEE *     CLOUDY    33  32  96 NW6       29.69R WCI  27
DENISON *      CLOUDY    32  30  93 NW8       29.67R WCI  25
LE MARS *      CLOUDY    34  30  86 NW8G14    29.72R WCI  27
ORANGE CITY *  CLOUDY    32  32 100 NW14      29.68R WCI  22
SHELDON *      CLOUDY    32  32 100 NW12      29.67R WCI  23
SIOUX CITY     CLOUDY    34  30  85 NW13      29.71R WCI  25
SPENCER          N/A    N/A N/A N/A MISG      29.67R
STORM LAKE *   CLOUDY    32  32 100 NW10      29.67R FOG     WCI  24
$$

IAZ055>058-069>071-079>083-090>094-221400-
   SOUTHWEST IOWA

CITY           SKY/WX    TMP DP  RH WIND       PRES   REMARKS
ATLANTIC *     CLOUDY    32  32 100 N16       29.67R WCI  21
AUDUBON *      CLOUDY    30  30 100 NW7       29.67R FOG     WCI  23
CLARINDA *     CLOUDY    30  30 100 N14       29.70R WCI  20
COUNCIL BLFS * CLOUDY    32  32 100 N15G21    29.68R WCI  22
CRESTON *      CLOUDY    30  30 100 N14       29.66R FOG     WCI  20
HARLAN  *      CLOUDY    32  32 100 N12       29.72R WCI  23
LAMONI         FOG       31  30  96 N8        29.63R VSB 1/2 WCI  23
RED OAK *      CLOUDY    32  32 100 N12G17    29.69R WCI  23
SHENANDOAH *   CLOUDY    32  30  93 N10       29.70R WCI  24
$$

IAZ047>049-059>061-072>074-084-221400-
   CENTRAL IOWA

CITY           SKY/WX    TMP DP  RH WIND       PRES   REMARKS
AMES           CLOUDY    33  33 100 NW5       29.65R WCI  29
ANKENY *       CLOUDY    32  32 100 NW6       29.67R WCI  26
BOONE *        CLOUDY    32  32 100 W8        29.64R FOG     WCI  25
CHARITON *     FOG       32  32 100 N15       29.63R VSB 1/2 WCI  22
DES MOINES     CLOUDY    33  30  88 N6        29.66R WCI  28
GRINNELL*      CLOUDY    32  32 100 NW8       29.64R FOG     WCI  25
KNOXVILLE *    CLOUDY    32  32 100 N12G17    29.63R FOG     WCI  23
MARSHALLTOWN   CLOUDY    32  32 100 W3        29.64R
NEWTON *       CLOUDY    32  32 100 N8        29.64R WCI  25
PELLA *        CLOUDY    32  32  99 NW10      29.65R FOG     WCI  24
PERRY *        CLOUDY    33  32  96 NW5       29.67R FOG     WCI  28
$$

IAZ004>006-015-016-023>025-035-036-221400-
   NORTH CENTRAL IOWA

CITY           SKY/WX    TMP DP  RH WIND       PRES   REMARKS
ALGONA *       FOG       34  34 100 NW7       29.65R VSB 1/4 WCI  28
CLARION *      FOG       32  32 100 NW8       29.64R VSB 3/4 WCI  25
ESTHERVILLE    FOG       32  32 100 NW6       29.65R VSB 1/4 WCI  26
FORT DODGE *   CLOUDY    34  30  86 CALM      29.66R
MASON CITY     CLOUDY    32  32 100 NW9       29.64R FOG     WCI  24
FOREST CITY *  FOG       32  32 100 NW5       29.63R VSB 1/4 WCI  27
WEBSTER CITY * FOG       34 N/A N/A NW12      29.63R VSB 3/4 WCI  25
IOWA FALLS *   CLOUDY    33  33  99 NW9       29.64R FOG     WCI  26
$$

IAZ007>011-017>019-026>030-037>042-050>054-066-221400-
   NORTHEAST IOWA

CITY           SKY/WX    TMP DP  RH WIND       PRES   REMARKS
CEDAR RAPIDS   FOG       32  32 100 NW8       29.61R VSB 1/2 WCI  25
CHARLES CITY * CLOUDY    32  32 100 CALM      29.62R
CLINTON *      FOG       30  30 100 N5        29.62R VSB 1/4 WCI  25
DECORAH *      CLOUDY    32  32 100 CALM      29.60R FOG
DUBUQUE        CLOUDY    30  29  96 CALM      29.61R
MONTICELLO *   FOG       32  32 100 CALM      29.61R VSB 3/4
OELWEIN *      CLOUDY    32  32 100 NW5       29.63R FOG     WCI  27
WATERLOO       CLOUDY    33  29  85 W3        29.63R
$$

IAZ064-065-067-068-078-221400-
   EAST CENTRAL IOWA

CITY           SKY/WX    TMP DP  RH WIND       PRES   REMARKS
DAVENPORT      FOG       30  30 100 N3        29.62R VSB 1/4
IOWA CITY      FOG       32  31  96 CALM      29.64R VSB 1/4
MUSCATINE *    MIX PCPN  32  32 100 CALM      29.63R
QUAD CITIES    CLOUDY    32  30  92 CALM      29.61R FOG
$$

IAZ062-063-075>077-085>089-095>099-221400-
   SOUTHEAST IOWA

CITY           SKY/WX    TMP DP  RH WIND       PRES   REMARKS
BURLINGTON     FOG       36  36 100 CALM      29.61R VSB 1
FAIRFIELD *    CLOUDY    32  32 100 W5        29.62R FOG     WCI  27
FORT MADISON * FOG       36  36 100 CALM      29.62R VSB 1/4
KEOKUK *       MIX PCPN  39 N/A N/A NE3       29.60R
OSKALOOSA *    FOG       32  32 100 NW9       29.63R VSB 1/2 WCI  24
CENTERVILLE *  FOG       32  32 100 CALM      29.64R VSB 1/2
OTTUMWA        FOG       32  31  96 NW6       29.62R VSB 1/4 WCI  26
WASHINGTON *   CLOUDY    32  32 100 NW5       29.62R FOG     WCI  27
$$

ABBREVIATIONS USED IN REMARKS
   TC - TEMPERATURES IN CELSIUS
  WCI - WIND CHILL INDEX
   HX - HEAT INDEX
  VSB - VISIBILITY
$$




USA.gov is the U.S. government's official web portal to all federal, state and local government web resources and services.